This is the latest recevied weather packets stored in our database for station/object KN6ZYR. If no packets are shown the sender has not sent any weather packets the latest 1 day(s).
| Time | Temp. | Humidity | Pressure | Rain* | Wind** | Luminosity | Snow |
|---|---|---|---|---|---|---|---|
| 1778022624 | 19.44° C | 37% | 1015.6 hPa | 0 mm | 0.89 m/s, 227° | 476 W/m² | - |
| 1778022321 | 20° C | 36% | 1016 hPa | 0 mm | 0.45 m/s, 249° | 486 W/m² | - |
| 1778022018 | 20° C | 34% | 1015.8 hPa | 0 mm | 0.89 m/s, 250° | 501 W/m² | - |
| 1778021714 | 19.44° C | 35% | 1015.7 hPa | 0 mm | 0 m/s | 518 W/m² | - |
| 1778021410 | 19.44° C | 36% | 1015.9 hPa | 0 mm | 1.34 m/s, 27° | 538 W/m² | - |
| 1778021108 | 19.44° C | 39% | 1015.9 hPa | 0 mm | 0.45 m/s, 280° | 544 W/m² | - |
| 1778020805 | 18.33° C | 39% | 1016.2 hPa | 0 mm | 0.45 m/s, 152° | 553 W/m² | - |
| 1778020502 | 18.89° C | 36% | 1015.9 hPa | 0 mm | 0.45 m/s, 82° | 560 W/m² | - |
| 1778020198 | 18.89° C | 39% | 1016.3 hPa | 0 mm | 0.89 m/s, 308° | 590 W/m² | - |
| 1778019895 | 18.33° C | 39% | 1016.3 hPa | 0 mm | 0.45 m/s, 90° | 617 W/m² | - |
| 1778019590 | 18.89° C | 41% | 1016.2 hPa | 0 mm | 0.45 m/s, 340° | 632 W/m² | - |
| 1778019287 | 19.44° C | 44% | 1016.4 hPa | 0 mm | 0 m/s | 645 W/m² | - |
| 1778018984 | 18.33° C | 39% | 1016.3 hPa | 0 mm | 2.24 m/s, 143° | 663 W/m² | - |
| 1778018681 | 17.78° C | 38% | 1016.4 hPa | 0 mm | 0.45 m/s, 216° | 664 W/m² | - |
| 1778018379 | 17.78° C | 42% | 1016.5 hPa | 0 mm | 2.24 m/s, 319° | 639 W/m² | - |
| 1778018077 | 18.89° C | 40% | 1016.4 hPa | 0 mm | 0 m/s | 741 W/m² | - |
| 1778017775 | 18.33° C | 42% | 1016.6 hPa | 0 mm | 0.45 m/s, 216° | 775 W/m² | - |
| 1778017472 | 18.33° C | 43% | 1016.5 hPa | 0 mm | 0 m/s | 767 W/m² | - |
| 1778017169 | 17.78° C | 44% | 1016.7 hPa | 0 mm | 0.45 m/s, 172° | 776 W/m² | - |
| 1778016867 | 17.78° C | 45% | 1016.8 hPa | 0 mm | 0.89 m/s, 227° | 759 W/m² | - |
| 1778016563 | 17.78° C | 46% | 1016.8 hPa | 0 mm | 0.89 m/s, 248° | 755 W/m² | - |
| 1778016260 | 17.22° C | 46% | 1016.7 hPa | 0 mm | 1.34 m/s, 27° | 767 W/m² | - |
| 1778015956 | 16.67° C | 44% | 1017 hPa | 0 mm | 1.79 m/s, 315° | 759 W/m² | - |
| 1778015654 | 17.22° C | 45% | 1017.2 hPa | 0 mm | 0.45 m/s, 118° | 547 W/m² | - |
| 1778015350 | 16.67° C | 45% | 1016.8 hPa | 0 mm | 1.34 m/s, 142° | 811 W/m² | - |
* Rain latest hour (hover to see other rain measurements)
** Current wind speed in m/s (hover to see current wind gust speed)